Timeline UpdatesTrip UpdatesNews PostsPvt Posts♥♥Travel TipsAdmin PostsConv PostsFollowed PostsChat RequestsBlog PostsPNR Posts

Disclaimer
Search
 
 
Wed Oct 22, 2014 13:28:31 ISTHomeTrainsΣChainsAtlasPNRForumGalleryNewsFAQTripsMembersLoginFeedback
No Recent News for this Train
Other Trains in the News **new
Latest...
Short Origination from Kharagpur from 3/8/14/-9/8/14 #1158953-1
Tue Jul 22, 2014 (09:50PM)
⇐ Return Journey: Train# 58002

58001/Howrah-Puri Passenger (UnReserved)

Time-Table HAS CHANGED.
Sep 03 2014 (1:51PM)
Change Departure Station:
Change Arrival Station:
Post a Train Travel TipPost a Train Travel Tip **new
Post a Comment/Question/Picture/VideoPost a Comment/Question/Picture/Video
Pantry/Catering
✕ NO Pantry Car
✓ Catering Avbl
RSA - Rake Sharing
58003-58004-58001-58002; Entry# 405717
Rake/Coach Composition
Only unreserved accommodation
Loco
SRC WAP-4
News    PNR    Forum    Time-Table    Availability    Fare Chart    Map    Arr/Dep History    Trips    Gallery    ΣChains    X/O    Timeline    
Travel Time: 9h 58m    57 halts    Distance: 351 km    Avg Speed: 35 km/hr
Type: Passenger
Zone: SER/South Eastern
Departs @ 23:50 (Avg 5m late)
Platform# 17
SMTWTFS
Kolkata Howrah Junction/HWH 
Arrives @ 09:48 +1 night (Avg 32m late)
Platform# ???
SMTWTFS
Jenapur/JEN 

57 halts. 73 intermediate Stations between Kolkata Howrah Junction and Jenapur

Show ALL intermediate Stations  Show Old Time-Table

#TrkCodeStation NameX/OArrivesAvgDepartsAvgHaltPFDay#KmSpeedElevZoneAddress
1/==/HWHKolkata Howrah Junction (23)»  -23:50+51710.02210mERHowrah 711101, West Bengal
2/--/RMJRamrajatala (4)  00:06-00:07-1m--25.9177mSERHowrah, West Bengal
3/==/SRCKolkata Santragachi Junction (6)  00:12+800:13+91m227.3407mSERDist: Howrah - 711104, West Bengal
4/==/ADLAndul (5)  00:20+2700:21+271m--212.06910mSERPin: 711302, West Bengal
5/==/NALRNalpur (4)  00:29 00:28+3000:30+301 2m--220.1455mSERHowrah, West Bengal
6/==/BVABauria Junction (5)  00:36 00:35+3000:37+291 2m--223.8387mSERHowrah, West Bengal
7/==/CGAChengel (5)X  00:42+2200:43+221m--226.9318mSERNational Highway 6, West Bengal
8/==/FLRPhuleswar (5)  00:48+4200:49+431m--229.53010mSERHowrah, West Bengal
9/==/ULBUluberia (6)  00:54+2200:55+231m2232.04010mSERdist - howrah, West Bengal
10/==/BSBPBir Shibpur (4)  01:01+2801:02+281m--236.0525mSERDist: Howrah, West Bengal
11/==/KGYKulgachia (3)  01:06-01:07-1m--239.5557mSERHowrah, West Bengal
12/==/BZNBagnan (4)  01:13+2001:14+201m--244.9498mSERBagnan, West Bengal
13/==/DTEDeulti (5)  01:21+2201:22+221m--250.7209mSERDeulty, West Bengal
14/==/KIGKolaghat (3)  01:29-01:30-1m--253.04511mSEREast Medinipore, West Bengal
15/==/MCAMecheda (6)  01:35 01:34+1301:36+131 2m--256.04510mSERdist - purba Medinipur, West Bengal
16/==/BOPBhogpur (4)  01:43+2101:44+201m--261.3617mSERMedinipur, West Bengal
17/==/PKUPanskura Junction (6)X  01:51+1701:52 01:53+171 2m--268.4449mSERPanskura, West Bengal
18/==/KHAIKhirai (3)X  01:59 02:00+002:00 02:01+01m--273.65311mSERPaschim Medinipur, West Bengal
19/==/HAURHaur (4)X  02:05 02:06+2202:06 02:07+221m--278.05312mSERMedinipur, West Bengal
20/==/RDURadhamohanpur (2)X  02:12-02:13-1m--282.46217mSERDist: West Medinipur, West Bengal
21/==/BCKBalichak (4)  02:19+2902:20+291m--288.65421mSERKharagpur, West Bengal
22/==/SMCKShyam Chak (4)  02:27 02:26+2302:28 02:27+221m--294.05920mSERDist: West Medinipur, West Bengal
23/==/MPDMadpur (4)O  02:34 02:33+2502:35 02:34+241m--299.95827mSERKharagpur, West Bengal
24/==/JPRJakpur (4)X  02:41 02:40+1802:42 02:41+211m--2105.82228mSERJakpur, West Bengal
25/==/KGPKharagpur Junction (10)  03:00+303:25+525m--2112.87342mSERKharagpur, West Bengal
26/==/BLDABelda (4)X  03:54+2103:55+231m--2148.34424mSERDistrict Paschim Medinipur, West Bengal
27/==/NSINekurseni (3)  04:06+2904:07+331m--2156.46424mSERNikursini, West Bengal
28/==/DNTDantan  04:15+3004:16+311m--2164.95319mSERNational Highway 60, West Bengal
29/==/AGVAngua (3)  04:22 04:21-04:23-1 2m--2169.35117mSERWest Medinipore, West Bengal
30/==/LXDLakshannath Road (4)X  04:30+2704:31+271m--2175.34617mSERDist. Balasore, Odisha
31/==/JERJaleswar (4)  04:39+2304:40+241m--2181.45113mSERJaleswar, Odisha
32/==/RGTRajghat Halt (2)  04:50 04:49-04:51 04:50-1m--2189.14317mSERRajghat, Odisha
33/==/ARDAmarda Road (4)X  05:00 04:59+2205:01 05:00+221m--2195.54611mSERAmarda Road, Odisha
34/==/BTSBasta (3)X  05:08 05:07+1305:09 05:08+131m--2200.94816mSERBasta, Odisha
35/==/NMBRN Mayurbhanj Road (3)X  05:15 05:14-05:16 05:15-1m--2205.74611mSERBaleswar, Odisha
36/==/ROPRupsa Junction (5)X  05:23 05:22+1405:24 05:23+141m--2211.05213mSERRupsa, Odisha
37/==/HIPHaldipada (4)  05:31 05:30+1605:32 05:31+181m--2217.1519mSERHaldipada, Odisha
38/==/TKPLTikirapal HaltX  05:40 05:39-05:41 05:40-1m--2223.9338mSERBaleswar, Odisha
39/==/BLSBalasore (4)X  05:50 05:49+605:55 05:54+75m12228.97119mSERBalasore, Odisha
40/==/NGRDNilgiri RoadX  06:04 06:03+1706:05 06:04+181m--2239.54814mSERBaleswar, Odisha
41/==/KHFKhantapara  06:11 06:10+1106:12 06:11+111m--2244.35015mSERKhantaparha, Odisha
42/==/PNPNPanpana  06:18 06:17-06:19 06:18-1m--2249.34415mSERKhantaparha, Odisha
43/==/BNBRBahanaga BazarX  06:25 06:24+1206:26 06:25+111m--2253.75819mSERBalasore Distt., Odisha
44/==/SOROSoro  06:35 06:34+1406:36 06:35+131m--2262.36514mSERSoro, Odisha
45/==/SZZSabira  06:44 06:43-06:45 06:44-1m--2271.05214mSERNational Highway 5, Odisha
46/==/MKOMarkonaX  06:52 06:51+406:53 06:52+41m--2277.15518mSERMarkuna, Odisha
47/==/RNTLRanitalX  07:00 06:59+207:01 07:00+51m--2283.51922mSERBhadrak, Odisha
48/==/BHCBhadrak (4)  07:25+2007:30+225m--2291.34323mECoRBhadrak, Odisha
49/==/BUDRBaudpur  07:39+3807:40+411m--2297.85221mECoRBhadrak, Odisha
50/==/KPLDKapali Road  07:45-07:46-1m--2302.15720mECoRKantia, Odisha
51/==/KEDKenduapadaXO  07:50 07:51+4207:51 07:52+491m--2306.88323mECoRBhadrak, Odisha
52/==/MZZManjuri Road  07:57+5307:58+551m--2313.74828mECoRBhadrak, Odisha
53/==/DLPTDulakhapatnaX  08:03-08:04-1m--2317.74727mECoRBandalo, Odisha
54/==/BTVBaitarani RoadX  08:11+5308:12+541m--2323.15927mECoRBaitarani, Odisha
55/==/KRIHKorai HaltXO  08:19+5508:20+561m--2330.0530mECoRJajapur, Odisha
56/==/JJKRJajpur Keonjhar Road (4)XO  09:29 09:25+509:30+211 5m--2335.09336mECoRJajpur, Odisha
57/==/JKPRJakhapura  09:35+2709:36+321m--2342.76819mECoRJajpur, Odisha
58/==/BRMIBrahamani Ph new halt!!O  09:41-09:42-1m--2348.42222mECoRNational Highway 200, Odisha
59/==/JENJenapur•  09:48+3209:49+361m--2350.65023mECoRNational Highway 200, Odisha
60/==/NGMPNew Garh MadhopurX  09:56+3809:57+381m--2356.56628mECoRGarh Madhopur, Odisha
61/==/HDSHaridaspur  10:06+3710:07+371m--2366.36130mECoRDhanmandal, Odisha
62/==/DNMDhanmandal (3)  10:12+4310:13+451m--2371.47638mECoRDhanmanda, Odisha
63/==/BRTGBarithengarhXO  10:18+4610:19+461m--2377.8625mECoRCuttack, Odisha
64/==/BYYByree  11:05+811:06+111m--2382.24833mECoRBairi, Odisha
65/==/SJDRSri Jhadeshwar Road  11:11-11:12-1m--2386.25830mECoRNational Highway 5, Odisha
66/==/KISKapilas Road Junction  11:18+1311:19+201m--2392.03824mECoRTangi, Odisha
67/--/SQQSalagaon  11:26+2511:27+251m--2396.41729mECoRCuttack, Odisha
68/==/CBTCharbatia  11:44+1411:45+161m--2401.37835mECoRCuttack, Odisha
69/==/BDPGBada Padagaon  11:48-11:49-1m--2405.24831mECoRCuttack, Odisha
70/==/GJTAGurudijhatia  11:59 11:55+1712:00+161 5m--2410.06233mECoRGurudijhat, Odisha
71/==/MZYMachapur  12:06+2112:07+211m--2416.22248mECoRKapilash Rd, Odisha
72/--/RQPRadhakishorepur  12:13+2112:14+211m--2418.47251mECoRNational Highway 42, Odisha
73/==%GHNHGhantakhal Nidhipur  12:19+2512:20+411m--2424.45239mECoRCuttack, Odisha
74%==%SPSRSarpeswar Ph new halt!!  12:25-12:26-1m--2428.72246mECoRSarpeswar, Odisha
75%==%NQRNaraj MarthapurX  12:35+4112:36+581m--2432.05329mECoRCuttack, Odisha
76%=-/BRAGBarangX  12:46+5512:47+571m--2440.94127mECoRDist - Cuttack, Odisha
77/--/MCSMancheswar  13:00+4913:01+541m--2449.82927mECoRMancheswar, Odisha
78/==/BBSBhubaneswar (4)X  13:15+1413:20+145m42456.65440mECoRBhubaneshwar, Odisha
79/==/LGTRLingaraj Temple Road  13:25+013:26+01m--2461.110639mECoRBhubaneswar, Odisha
80/==/RTNRetangXO  13:30+1:0213:31+1:021m--2468.1619mECoRKhurdha, Odisha
81/==/KURKhurda Road Junction (7)X  15:15 14:50+2315:25 15:00+2510m--2475.52325mECoRKhordha, Odisha
82/==/HPGMHaripur Gram  15:32 15:07-15:33 15:08-1m--2478.24622mECoRKhordha, Odisha
83/==/MWQMotari Halt  15:40 15:15+1015:41 15:16+101m--2483.54212mECoRMotari, Odisha
84/==/KASRKanas Road  15:46 15:21-15:47 15:22-1m--2487.0449mECoRKhordha, Odisha
85%==/DEGDelang  15:57 15:27+915:58 15:28+101m--2490.7449mECoRKhordha, Odisha
86/==/JERD new halt!!  15:33-15:34-1m--2494.46 ???
87%==%BRSTBir PurushottampurX  16:09 15:40+816:10 15:41+131m--2495.05612mECoRSatasankha, Odisha
88%==%SILSakhi Gopal (3)O  16:15 15:47+1516:16 15:48+251m--2500.66010mECoRPuri, Odisha
89%==%JKDPJankidaipurO  16:22 15:54-16:23 15:55-1m--2506.63713mECoRChandanpur, Odisha
90%==%MLTMalatipatpur (1)  16:28 16:00+2516:29 16:01+371m12509.7415mECoRPuri, Odisha
91%==%PURIPuri (5)  19:00 17:55+28---2517.0-12mECoRPuri, Odisha
Scroll to Top
Scroll to Bottom